User: anonymous   Login
Location: Unspecified
(0.0000°N, 0.0000°E)
Time: 12:44:24
(UTC+00:00)
Language:

Skynet 4C - Orbit

View from above orbital plane
View from above orbital plane
View from above satellite
View from above satellite

Ground track
Ground track

The orbit data is extracted from the following two-line orbital elements,

1 20776U 90079A   18201.11373597  .00000107  00000-0  00000+0 0  9992
2 20776  13.9487  12.2160 0002766  96.8399 263.2200  1.00274121101974
Epoch (UTC): 20 July 2018 02:43:46
Eccentricity: 0.0002766
inclination: 13.9487°
perigee height: 35774 km
apogee height: 35797 km
right ascension of ascending node: 12.2160°
argument of perigee: 96.8399°
revolutions per day: 1.00274121
mean anomaly at epoch: 263.2200°
orbit number at epoch: 10197

The dashed part of the orbit path shows where the satellite is in the earth's shadow,  

DLR